Location: Catenanuova
(37.5690°N, 14.6870°E)
Time: 20:34:39
(UTC+02:00)

BlueWalker 3 - Pass Details

Date: 21 May 2025
Orbit: 460 x 472 km, 53.2° (Epoch: 15 June)

Event Time Altitude Azimuth Distance (km) Brightness Sun altitude
Rises 23:40:25 0° 302° (WNW) 2,493 6.2 -29.2°
Reaches altitude 10° 23:42:46 10° 289° (WNW) 1,616 4.9 -29.4°
Enters shadow 23:42:56 11° 288° (WNW) 1,557 4.8 -29.4°
